EW8474 Weather Reports


time (UTC)temp
C
wind
direction
speed
KPH
gust
KPH
rain 1hr
cm
rain 24hr
cm
rain mn
cm
humidity
%
barometer
mb
20260507023009 13 266 0.0 6.4 0.00 0.00 0.00 83 1018.7
20260507021508 13 255 0.0 6.4 0.00 0.00 0.00 83 1018.6
20260507020008 13 300 0.0 6.4 0.00 0.00 0.00 82 1018.7
20260507014516 13 299 0.0 9.7 0.00 0.00 0.00 82 1018.5
20260507013022 13 272 3.2 9.7 0.00 0.00 0.00 81 1018.5
20260507011505 13 234 1.6 9.7 0.00 0.00 0.00 81 1018.5
20260507010005 13 238 3.2 12.9 0.00 0.00 0.00 80 1018.6
20260507004504 13 304 0.0 8.0 0.00 0.00 0.00 80 1018.6
20260507003003 13 222 1.6 11.3 0.00 0.00 0.00 80 1018.7
20260507001504 13 227 3.2 12.9 0.00 0.00 0.00 80 1018.6
20260507000007 13 245 1.6 9.7 0.00 0.00 0.00 78 1018.6
20260506234502 13 254 0.0 12.9 0.00 0.00 0.00 78 1018.6
20260506233001 13 262 6.4 11.3 0.00 0.00 0.00 77 1018.6
20260506231600 14 231 0.0 8.0 0.00 0.00 0.00 76 1018.7
20260506224601 13 245 1.6 9.7 0.00 0.00 0.00 75 1018.7
20260506223125 13 261 1.6 6.4 0.00 0.00 0.00 76 1018.7
20260506221603 13 240 0.0 4.8 0.00 0.00 0.00 76 1018.8
20260506220057 14 223 1.6 4.8 0.00 0.00 0.00 76 1018.9
20260506214608 14 217 3.2 12.9 0.00 0.00 0.00 74 1018.9
20260506213055 14 152 3.2 9.7 0.00 0.00 0.00 76 1018.9
20260506211556 14 191 1.6 12.9 0.00 0.00 0.00 76 1018.9
20260506210053 15 222 6.4 16.1 0.00 0.00 0.00 74 1019.0
20260506204551 15 172 9.7 17.7 0.00 0.00 0.00 72 1018.8
20260506203049 15 175 3.2 12.9 0.00 0.00 0.00 73 1018.8
20260506201546 15 205 3.2 16.1 0.00 0.00 0.00 75 1018.7
20260506200117 15 229 4.8 12.9 0.00 0.00 0.00 78 1018.8
20260506194541 14 259 0.0 16.1 0.00 0.00 0.00 80 1018.7
20260506193042 14 158 4.8 14.5 0.00 0.00 0.00 80 1018.6
20260506191538 14 200 3.2 12.9 0.00 0.00 0.00 80 1018.6
20260506190038 13 234 3.2 9.7 0.00 0.00 0.00 81 1018.6
20260506184536 13 216 3.2 11.3 0.00 0.00 0.00 82 1018.5
20260506183035 13 148 3.2 14.5 0.00 0.00 0.00 82 1018.4
20260506181537 13 149 4.8 11.3 0.00 0.00 0.00 81 1018.3
20260506180043 13 147 1.6 9.7 0.00 0.00 0.00 82 1018.3
20260506174532 14 172 1.6 8.0 0.00 0.00 0.00 82 1018.3
20260506173028 13 181 6.4 9.7 0.00 0.00 0.00 83 1017.8
20260506171543 13 160 0.0 4.8 0.00 0.00 0.00 87 1018.1
20260506170026 12 264 3.2 9.7 0.00 0.00 0.00 87 1018.2
20260506164525 12 266 3.2 8.0 0.00 0.00 0.00 88 1018.1
20260506163028 13 287 3.2 6.4 0.00 0.00 0.00 86 1018.2
20260506161535 13 91 0.0 1.6 0.00 0.00 0.00 88 1017.9
20260506160020 12 145 0.0 3.2 0.00 0.00 0.00 89 1017.9
20260506154518 12 186 0.0 8.0 0.00 0.00 0.00 89 1017.6
20260506153017 12 128 3.2 9.7 0.00 0.00 0.00 90 1017.6
20260506151517 12 201 0.0 3.2 0.00 0.00 0.00 90 1017.6
20260506150023 12 123 0.0 0.0 0.00 0.00 0.00 90 1018.0
20260506144514 12 159 1.6 4.8 0.00 0.00 0.00 91 1017.6
20260506143014 12 124 0.0 4.8 0.00 0.00 0.00 90 1017.5
20260506141512 12 166 0.0 4.8 0.00 0.00 0.00 90 1017.5
20260506140011 12 149 1.6 4.8 0.00 0.00 0.00 90 1017.3
20260506134520 12 30 0.0 0.0 0.00 0.00 0.00 90 1017.4
20260506133011 12 25 0.0 3.2 0.00 0.00 0.00 90 1017.4
20260506131509 11 98 0.0 0.0 0.00 0.00 0.00 90 1017.3
20260506130007 11 118 0.0 0.0 0.00 0.00 0.00 90 1017.1
20260506124511 11 92 0.0 4.8 0.00 0.00 0.00 90 1016.9
20260506123005 11 91 0.0 3.2 0.00 0.00 0.00 90 1016.8
20260506121508 11 39 0.0 4.8 0.00 0.00 0.00 90 1016.8
20260506120009 11 338 0.0 1.6 0.00 0.00 0.00 90 1016.8
20260506114503 11 95 0.0 0.0 0.00 0.00 0.00 91 1016.6
20260506113059 11 95 0.0 0.0 0.00 0.00 0.00 91 1016.6
20260506111613 11 95 0.0 0.0 0.00 0.00 0.00 90 1016.5
20260506110056 11 95 0.0 0.0 0.00 0.00 0.00 90 1016.2
20260506104553 11 95 0.0 0.0 0.00 0.00 0.00 90 1016.0
20260506103052 11 295 0.0 0.0 0.00 0.00 0.00 91 1016.0
20260506101551 11 295 0.0 0.0 0.00 0.00 0.00 91 1015.9
20260506100050 10 295 0.0 0.0 0.00 0.00 0.00 91 1015.8
20260506094547 10 295 0.0 0.0 0.00 0.00 0.00 91 1015.6
20260506093052 10 295 0.0 0.0 0.00 0.00 0.00 91 1015.6
20260506091544 10 295 0.0 0.0 0.00 0.00 0.00 91 1015.6
20260506090043 11 295 0.0 0.0 0.00 0.00 0.00 91 1015.6
20260506084540 11 295 0.0 0.0 0.00 0.00 0.00 91 1015.4
20260506083042 11 295 0.0 0.0 0.00 0.00 0.00 91 1015.3
20260506081545 11 295 0.0 0.0 0.00 0.00 0.00 91 1015.2
20260506073032 12 295 0.0 0.0 0.00 0.00 0.00 90 1014.7
20260506071526 12 295 0.0 0.0 0.00 0.00 0.00 90 1014.7
20260506061533 13 297 0.0 4.8 0.00 0.00 0.00 89 1014.6
20260506044521 13 252 0.0 0.0 0.00 0.00 0.00 88 1013.7
20260506043019 13 252 0.0 0.0 0.00 0.00 0.00 87 1013.5
20260506041518 14 252 0.0 0.0 0.00 0.00 0.00 86 1013.4
20260506040025 14 276 0.0 0.0 0.00 0.00 0.00 85 1013.3
20260506034518 15 317 1.6 6.4 0.00 0.00 0.00 83 1013.3
20260506033017 15 263 0.0 6.4 0.00 0.00 0.00 80 1013.2
20260506031526 16 250 0.0 4.8 0.00 0.00 0.00 76 1013.1
20260506030016 17 246 1.6 6.4 0.00 0.00 0.00 74 1013.0
20260506024532 17 241 0.0 8.0 0.00 0.00 0.00 73 1013.0